This is the latest recevied weather packets stored in our database for station/object F1AGU-13. If no packets are shown the sender has not sent any weather packets the latest 10 day(s).
| Time | Temp. | Humidity | Pressure | Rain* | Wind** | Luminosity | Snow |
|---|---|---|---|---|---|---|---|
| 1778084717 | 11.11° C | 80% | 1010.5 hPa | 0 mm | - | - | - |
| 1778084117 | 11.67° C | 79% | 1010.8 hPa | 0 mm | - | - | - |
| 1778083517 | 11.11° C | 81% | 1010.5 hPa | 0 mm | - | - | - |
| 1778082917 | 10.56° C | 81% | 1010.5 hPa | 0 mm | - | - | - |
| 1778082317 | 10.56° C | 82% | 1010.6 hPa | 0 mm | - | - | - |
| 1778081717 | 10° C | 80% | 1010.6 hPa | 0 mm | - | - | - |
| 1778081117 | 10° C | 80% | 1010.4 hPa | 0 mm | - | - | - |
| 1778080516 | 9.44° C | 81% | 1010.5 hPa | 0 mm | - | - | - |
| 1778079916 | 9.44° C | 82% | 1010.5 hPa | 0 mm | - | - | - |
| 1778079316 | 9.44° C | 82% | 1010.6 hPa | 0 mm | - | - | - |
| 1778078716 | 9.44° C | 82% | 1010.5 hPa | 0 mm | - | - | - |
| 1778078116 | 9.44° C | 83% | 1010.7 hPa | 0 mm | - | - | - |
| 1778077517 | 9.44° C | 84% | 1010.5 hPa | 0 mm | - | - | - |
| 1778076916 | 9.44° C | 83% | 1010.8 hPa | 0 mm | - | - | - |
| 1778076316 | 9.44° C | 83% | 1010.7 hPa | 0 mm | - | - | - |
| 1778075716 | 10.56° C | 84% | 1010.9 hPa | 0 mm | - | - | - |
| 1778075116 | 10.56° C | 77% | 1011 hPa | 0 mm | - | - | - |
| 1778074516 | 10° C | 76% | 1010.8 hPa | 0 mm | - | - | - |
| 1778073916 | 10° C | 74% | 1010.9 hPa | 0 mm | - | - | - |
| 1778073316 | 10.56° C | 77% | 1011.2 hPa | 0 mm | - | - | - |
| 1778072716 | 10.56° C | 77% | 1010.9 hPa | 0 mm | - | - | - |
| 1778072117 | 10.56° C | 82% | 1010.9 hPa | 0 mm | - | - | - |
| 1778071516 | 10° C | 83% | 1011 hPa | 0.25 mm | - | - | - |
| 1778070916 | 9.44° C | 88% | 1010.8 hPa | 0.25 mm | - | - | - |
| 1778070317 | 8.89° C | 86% | 1010.8 hPa | 0.51 mm | - | - | - |
* Rain latest hour (hover to see other rain measurements)
** Current wind speed in m/s (hover to see current wind gust speed)